QPF
0.02 0.02 0.01 0.01 0.01 0.01 0.01 0.01 0.02 0.03 0.04 0.04 0.03 0.04 0.08 0.06 0.03 0.03 0.03 0.03 0.03 0.03 0.02 0.03 0.03 0.02 0.01 0.01 0.02 0.02 0.02 0.02 0.02 0.03 0.04 0.04 0.04 0.05 0.05 0.04 0.03 0.03 0.02 0.02
0.02 0.01 0.01 0.01 0.02 0.02 0.01 0.02 0.04 0.05 0.07 0.03 0.03 0.03 0.04 0.04 0.04 0.03 0.02 0.03 0.02 0.02 0.03 0.04 0.05 0.04 0.02 0.02 0.02 0.01 0.02 0.01 0.02 0.02 0.03 0.04 0.05 0.05 0.05 0.05 0.04 0.04 0.03 0.02
0.02 0.01 0.01 0.03 0.05 0.04 0.02 0.01 0.04 0.04 0.04 0.03 0.01 0.01 0.03 0.05 0.08 0.05 0.03 0.03 0.04 0.04 0.04 0.05 0.05 0.05 0.03 0.02 0.02 0.02 0.01 0.01 0.02 0.03 0.03 0.03 0.03 0.04 0.05 0.04 0.03 0.03 0.03 0.02
0.02 0.02 0.04 0.06 0.05 0.04 0.02 0.01 0.03 0.02 0.02 0.02 0.02 0.02 0.05 0.10 0.13 0.05 0.02 0.02 0.03 0.04 0.04 0.04 0.03 0.04 0.05 0.02 0.02 0.01 0.01 0.02 0.02 0.03 0.05 0.05 0.04 0.04 0.03 0.03 0.02 0.02 0.02 0.02
0.02 0.03 0.06 0.07 0.04 0.03 0.02 0.02 0.02 0.02 0.02 0.04 0.05 0.07 0.06 0.07 0.06 0.04 0.02 0.02 0.03 0.03 0.03 0.03 0.03 0.04 0.02 0.02 0.01 0.02 0.02 0.02 0.03 0.03 0.03 0.03 0.03 0.03 0.02 0.02 0.01 0.01 0.01 0.01
0.03 0.03 0.05 0.04 0.02 0.02 0.02 0.03 0.03 0.04 0.05 0.08 0.12 0.13 0.09 0.05 0.05 0.04 0.03 0.02 0.01 0.01 0.02 0.02 0.02 0.02 0.01 0.01 0.01 0.02 0.02 0.02 0.02 0.03 0.03 0.03 0.03 0.02 0.01 0.01 0.01 0.01 0.01 0.01
0.02 0.03 0.04 0.03 0.03 0.02 0.03 0.05 0.07 0.09 0.06 0.08 0.14 0.16 0.11 0.09 0.05 0.04 0.03 0.02 0.01 0.01 0.02 0.01 0.01 0.01 0.01 0.01 0.01 0.01 0.01 0.01 0.02 0.03 0.03 0.03 0.02 0.01 0.01 0.01 0.01 0.01 0.01 0.01
0.02 0.02 0.03 0.03 0.02 0.03 0.07 0.09 0.10 0.09 0.04 0.05 0.08 0.10 0.06 0.06 0.05 0.02 0.02 0.02 0.02 0.02 0.02 0.01 0.01 0.01 0.01 0.01 0.01 0.01 0.01 0.01 0.01 0.02 0.02 0.01 0.01 0.01 0.01 0.01 0.01 0.01 0.01 0.02
0.02 0.04 0.05 0.03 0.03 0.03 0.08 0.08 0.07 0.05 0.04 0.04 0.04 0.04 0.03 0.04 0.04 0.03 0.02 0.03 0.02 0.02 0.02 0.02 0.01 0.01 0.02 0.02 0.01 0.01 0.01 0.01 0.01 0.01 0.01 0.01 0.02 0.01 0.01 0.01 0.01 0.02 0.02 0.02
0.03 0.05 0.06 0.05 0.05 0.04 0.03 0.03 0.02 0.02 0.02 0.02 0.02 0.02 0.03 0.05 0.03 0.03 0.02 0.03 0.01 0.01 0.02 0.02 0.02 0.02 0.02 0.02 0.02 0.02 0.01 0.01 0.01 0.01 0.02 0.02 0.02 0.01 0.01 0.01 0.02 0.03 0.03 0.02
0.03 0.03 0.04 0.05 0.05 0.04 0.02 0.01 0.01 0.01 0.01 0.01 0.01 0.02 0.02 0.02 0.02 0.02 0.03 0.03 0.01 0.01 0.01 0.01 0.01 0.01 0.01 0.02 0.03 0.02 0.03 0.04 0.04 0.03 0.02 0.01 0.01 0.02 0.01 0.01 0.01 0.01 0.01 0.01
0.02 0.02 0.03 0.05 0.04 0.03 0.02 0.02 0.01 0.01 0.01 0.01 0.01 0.01 0.01 0.02 0.02 0.03 0.04 0.03 0.02 0.01 0.01 0.01 0.01 0.01 0.01 0.02 0.03 0.03 0.04 0.05 0.05 0.04 0.03 0.02 0.02 0.03 0.03 0.02 0.01 0.01 0.01 0.00
0.02 0.03 0.03 0.02 0.02 0.01 0.01 0.01 0.01 0.01 0.01 0.01 0.01 0.00 0.01 0.03 0.03 0.03 0.03 0.03 0.03 0.03 0.02 0.02 0.01 0.01 0.01 0.02 0.03 0.03 0.04 0.05 0.05 0.05 0.03 0.02 0.02 0.02 0.02 0.01 0.01 0.01 0.01 0.01
0.02 0.03 0.03 0.02 0.01 0.01 0.01 0.01 0.01 0.01 0.01 0.01 0.01 0.00 0.01 0.02 0.02 0.02 0.03 0.03 0.04 0.03 0.01 0.01 0.01 0.01 0.01 0.01 0.02 0.03 0.04 0.05 0.04 0.03 0.03 0.02 0.01 0.00 0.01 0.01 0.01 0.01 0.00 0.00
0.01 0.01 0.01 0.01 0.00 0.01 0.02 0.01 0.01 0.01 0.01 0.01 0.00 0.00 0.00 0.01 0.02 0.02 0.02 0.04 0.04 0.02 0.02 0.02 0.01 0.00 0.00 0.01 0.01 0.03 0.04 0.04 0.02 0.01 0.01 0.01 0.01 0.01 0.01 0.00 0.00 0.00 0.00 0.00
0.01 0.01 0.02 0.01 0.01 0.01 0.01 0.02 0.02 0.01 0.01 0.01 0.01 0.00 0.00 0.01 0.03 0.02 0.03 0.05 0.04 0.02 0.02 0.02 0.02 0.01 0.00 0.00 0.00 0.01 0.01 0.01 0.01 0.01 0.01 0.02 0.02 0.01 0.01 0.01 0.00 0.00 0.00 0.00
0.01 0.02 0.02 0.02 0.01 0.01 0.01 0.02 0.02 0.02 0.01 0.01 0.01 0.01 0.00 0.01 0.02 0.02 0.05 0.05 0.03 0.02 0.01 0.01 0.01 0.01 0.01 0.01 0.01 0.01 0.01 0.02 0.02 0.02 0.02 0.02 0.02 0.02 0.02 0.01 0.00 0.00 0.00 0.00
0.01 0.01 0.01 0.02 0.02 0.01 0.01 0.01 0.02 0.02 0.01 0.01 0.01 0.01 0.01 0.01 0.03 0.04 0.04 0.02 0.01 0.02 0.01 0.01 0.01 0.01 0.01 0.01 0.01 0.01 0.01 0.01 0.02 0.03 0.03 0.03 0.02 0.02 0.01 0.01 0.01 0.00 0.01 0.00
0.01 0.01 0.01 0.02 0.02 0.02 0.02 0.01 0.02 0.02 0.01 0.01 0.01 0.01 0.01 0.01 0.02 0.03 0.03 0.02 0.01 0.01 0.01 0.02 0.02 0.01 0.01 0.01 0.01 0.01 0.01 0.01 0.01 0.01 0.02 0.02 0.02 0.02 0.01 0.01 0.01 0.01 0.01 0.00
0.01 0.01 0.01 0.02 0.02 0.02 0.02 0.01 0.02 0.02 0.01 0.01 0.01 0.01 0.01 0.01 0.02 0.02 0.02 0.02 0.01 0.01 0.01 0.01 0.01 0.00 0.00 0.00 0.00 0.00 0.00 0.00 0.00 0.00 0.00 0.01 0.01 0.01 0.01 0.02 0.02 0.02 0.02 0.01
0.01 0.02 0.01 0.01 0.01 0.02 0.02 0.02 0.02 0.01 0.01 0.01 0.01 0.01 0.01 0.01 0.01 0.03 0.02 0.02 0.01 0.01 0.01 0.01 0.01 0.01 0.01 0.01 0.01 0.01 0.00 0.00 0.00 0.00 0.00 0.01 0.02 0.02 0.02 0.03 0.03 0.02 0.02 0.02
0.02 0.02 0.02 0.01 0.01 0.01 0.02 0.02 0.02 0.01 0.01 0.01 0.01 0.01 0.01 0.01 0.01 0.02 0.02 0.02 0.02 0.01 0.01 0.00 0.00 0.00 0.00 0.00 0.00 0.00 0.00 0.00 0.00 0.00 0.00 0.00 0.01 0.01 0.02 0.03 0.03 0.02 0.02 0.02
0.03 0.02 0.03 0.03 0.03 0.03 0.02 0.01 0.01 0.01 0.01 0.01 0.01 0.01 0.01 0.01 0.01 0.01 0.01 0.03 0.03 0.02 0.01 0.01 0.00 0.00 0.00 0.00 0.00 0.00 0.00 0.00 0.00 0.00 0.00 0.00 0.00 0.01 0.01 0.01 0.02 0.02 0.02 0.02
0.03 0.02 0.02 0.03 0.04 0.05 0.04 0.02 0.01 0.01 0.01 0.01 0.01 0.01 0.01 0.01 0.01 0.01 0.01 0.01 0.01 0.01 0.01 0.01 0.01 0.00 0.00 0.00 0.00 0.00 0.00 0.00 0.00 0.00 0.00 0.01 0.01 0.01 0.01 0.01 0.02 0.02 0.02 0.01
0.04 0.03 0.03 0.03 0.03 0.05 0.05 0.03 0.03 0.02 0.02 0.02 0.02 0.02 0.01 0.01 0.01 0.02 0.02 0.02 0.02 0.02 0.02 0.02 0.01 0.01 0.01 0.00 0.00 0.00 0.01 0.01 0.01 0.01 0.01 0.01 0.01 0.01 0.02 0.02 0.02 0.02 0.02 0.02
0.03 0.04 0.04 0.04 0.04 0.05 0.05 0.04 0.04 0.04 0.04 0.04 0.03 0.04 0.04 0.03 0.02 0.02 0.03 0.04 0.03 0.02 0.02 0.02 0.02 0.02 0.01 0.01 0.01 0.01 0.01 0.01 0.02 0.02 0.01 0.01 0.01 0.01 0.02 0.02 0.02 0.02 0.02 0.01
0.02 0.02 0.03 0.03 0.03 0.04 0.04 0.04 0.03 0.03 0.03 0.03 0.03 0.03 0.06 0.06 0.02 0.02 0.02 0.03 0.03 0.03 0.03 0.03 0.03 0.03 0.02 0.02 0.01 0.01 0.01 0.01 0.01 0.01 0.01 0.01 0.01 0.01 0.01 0.02 0.02 0.02 0.02 0.01
MSLP
1018.29 1018.40 1018.55 1018.74 1019.00 1019.29 1019.59 1019.86 1020.06 1020.17 1020.18 1020.09 1019.93 1019.73 1019.52 1019.33 1019.17 1019.06 1018.98 1018.91 1018.83 1018.70 1018.52 1018.28 1017.98 1017.65 1017.31 1016.97 1016.66 1016.38 1016.15 1015.95 1015.79 1015.64 1015.51 1015.39 1015.27 1015.16 1015.05 1014.93 1014.82 1014.69 1014.54 1014.37
1018.51 1018.63 1018.74 1018.86 1019.01 1019.17 1019.34 1019.49 1019.61 1019.68 1019.69 1019.65 1019.56 1019.46 1019.35 1019.24 1019.15 1019.07 1018.99 1018.89 1018.76 1018.59 1018.37 1018.11 1017.81 1017.50 1017.19 1016.90 1016.65 1016.43 1016.25 1016.09 1015.96 1015.83 1015.71 1015.58 1015.45 1015.32 1015.18 1015.03 1014.88 1014.73 1014.55 1014.35
1018.64 1018.74 1018.81 1018.87 1018.94 1019.01 1019.08 1019.15 1019.21 1019.25 1019.27 1019.28 1019.27 1019.25 1019.22 1019.19 1019.15 1019.09 1019.00 1018.88 1018.70 1018.48 1018.22 1017.93 1017.63 1017.33 1017.05 1016.80 1016.59 1016.42 1016.28 1016.17 1016.06 1015.95 1015.82 1015.69 1015.53 1015.37 1015.20 1015.02 1014.83 1014.64 1014.44 1014.23
1018.66 1018.72 1018.75 1018.76 1018.76 1018.76 1018.77 1018.79 1018.81 1018.85 1018.89 1018.94 1019.00 1019.05 1019.09 1019.12 1019.12 1019.08 1018.99 1018.84 1018.64 1018.39 1018.10 1017.79 1017.47 1017.18 1016.92 1016.70 1016.53 1016.39 1016.28 1016.18 1016.09 1015.98 1015.85 1015.70 1015.52 1015.33 1015.12 1014.91 1014.69 1014.47 1014.25 1014.02
1018.56 1018.57 1018.55 1018.51 1018.47 1018.43 1018.40 1018.39 1018.40 1018.43 1018.50 1018.58 1018.69 1018.80 1018.90 1018.97 1019.01 1019.00 1018.92 1018.77 1018.56 1018.30 1018.00 1017.69 1017.38 1017.09 1016.84 1016.64 1016.48 1016.36 1016.26 1016.17 1016.08 1015.96 1015.81 1015.64 1015.44 1015.22 1014.98 1014.74 1014.50 1014.26 1014.02 1013.78
1018.32 1018.26 1018.20 1018.13 1018.05 1017.99 1017.94 1017.92 1017.92 1017.96 1018.04 1018.15 1018.29 1018.44 1018.58 1018.70 1018.78 1018.80 1018.76 1018.64 1018.45 1018.21 1017.93 1017.63 1017.34 1017.07 1016.83 1016.64 1016.49 1016.37 1016.26 1016.16 1016.05 1015.92 1015.76 1015.56 1015.34 1015.09 1014.84 1014.57 1014.31 1014.05 1013.80 1013.56
1017.91 1017.80 1017.70 1017.60 1017.52 1017.45 1017.40 1017.38 1017.38 1017.43 1017.52 1017.64 1017.79 1017.96 1018.13 1018.29 1018.41 1018.48 1018.48 1018.42 1018.28 1018.09 1017.86 1017.61 1017.35 1017.10 1016.89 1016.70 1016.55 1016.42 1016.30 1016.18 1016.05 1015.89 1015.71 1015.49 1015.25 1014.99 1014.71 1014.43 1014.16 1013.89 1013.63 1013.38
1017.34 1017.19 1017.06 1016.96 1016.88 1016.83 1016.80 1016.79 1016.80 1016.85 1016.94 1017.06 1017.21 1017.39 1017.58 1017.76 1017.92 1018.03 1018.10 1018.10 1018.04 1017.92 1017.76 1017.57 1017.37 1017.16 1016.97 1016.79 1016.63 1016.49 1016.35 1016.21 1016.05 1015.88 1015.67 1015.44 1015.18 1014.91 1014.62 1014.33 1014.05 1013.77 1013.51 1013.26
1016.59 1016.42 1016.30 1016.22 1016.18 1016.16 1016.16 1016.18 1016.22 1016.27 1016.36 1016.47 1016.61 1016.78 1016.96 1017.16 1017.34 1017.50 1017.63 1017.70 1017.72 1017.69 1017.61 1017.49 1017.34 1017.18 1017.02 1016.86 1016.70 1016.55 1016.39 1016.23 1016.06 1015.86 1015.64 1015.40 1015.13 1014.85 1014.56 1014.26 1013.96 1013.68 1013.40 1013.15
1015.67 1015.52 1015.44 1015.41 1015.43 1015.47 1015.53 1015.60 1015.67 1015.74 1015.82 1015.92 1016.05 1016.20 1016.37 1016.56 1016.75 1016.94 1017.11 1017.24 1017.33 1017.38 1017.37 1017.32 1017.24 1017.13 1017.00 1016.85 1016.70 1016.55 1016.38 1016.21 1016.03 1015.82 1015.59 1015.34 1015.07 1014.78 1014.48 1014.17 1013.87 1013.57 1013.28 1013.01
1014.63 1014.52 1014.49 1014.54 1014.65 1014.78 1014.92 1015.05 1015.17 1015.27 1015.37 1015.47 1015.58 1015.70 1015.85 1016.03 1016.21 1016.41 1016.59 1016.76 1016.89 1016.99 1017.04 1017.05 1017.01 1016.94 1016.85 1016.73 1016.59 1016.44 1016.28 1016.11 1015.92 1015.71 1015.48 1015.23 1014.95 1014.66 1014.35 1014.03 1013.71 1013.39 1013.09 1012.80
1013.52 1013.45 1013.50 1013.64 1013.84 1014.07 1014.31 1014.53 1014.73 1014.89 1015.02 1015.13 1015.23 1015.34 1015.46 1015.60 1015.76 1015.93 1016.11 1016.28 1016.42 1016.54 1016.62 1016.66 1016.65 1016.61 1016.54 1016.44 1016.33 1016.19 1016.04 1015.88 1015.70 1015.50 1015.28 1015.03 1014.76 1014.46 1014.14 1013.80 1013.46 1013.13 1012.80 1012.49
1012.40 1012.38 1012.50 1012.72 1013.02 1013.36 1013.70 1014.03 1014.31 1014.54 1014.73 1014.87 1014.98 1015.08 1015.18 1015.29 1015.41 1015.55 1015.69 1015.82 1015.95 1016.06 1016.13 1016.17 1016.18 1016.15 1016.10 1016.02 1015.92 1015.81 1015.68 1015.53 1015.37 1015.19 1014.98 1014.73 1014.46 1014.16 1013.83 1013.48 1013.12 1012.76 1012.41 1012.07
1011.36 1011.37 1011.54 1011.82 1012.20 1012.63 1013.08 1013.50 1013.88 1014.19 1014.45 1014.64 1014.78 1014.89 1014.98 1015.06 1015.14 1015.23 1015.32 1015.41 1015.49 1015.55 1015.60 1015.62 1015.62 1015.59 1015.54 1015.48 1015.40 1015.31 1015.20 1015.08 1014.94 1014.78 1014.58 1014.35 1014.08 1013.77 1013.43 1013.07 1012.69 1012.31 1011.94 1011.59
1010.49 1010.50 1010.67 1010.99 1011.42 1011.91 1012.43 1012.93 1013.40 1013.80 1014.12 1014.38 1014.56 1014.70 1014.79 1014.86 1014.91 1014.95 1014.99 1015.02 1015.04 1015.06 1015.06 1015.05 1015.02 1014.98 1014.93 1014.88 1014.81 1014.74 1014.66 1014.57 1014.45 1014.31 1014.13 1013.90 1013.64 1013.33 1012.98 1012.60 1012.21 1011.81 1011.43 1011.07
1009.89 1009.85 1009.99 1010.29 1010.72 1011.23 1011.78 1012.34 1012.86 1013.33 1013.72 1014.04 1014.27 1014.45 1014.56 1014.63 1014.66 1014.68 1014.67 1014.65 1014.63 1014.59 1014.54 1014.49 1014.44 1014.38 1014.33 1014.28 1014.22 1014.17 1014.11 1014.04 1013.94 1013.81 1013.64 1013.43 1013.16 1012.85 1012.49 1012.11 1011.71 1011.31 1010.92 1010.56
1009.62 1009.50 1009.57 1009.80 1010.17 1010.65 1011.18 1011.74 1012.29 1012.79 1013.23 1013.60 1013.88 1014.10 1014.24 1014.33 1014.37 1014.37 1014.34 1014.29 1014.23 1014.16 1014.08 1013.99 1013.92 1013.84 1013.78 1013.73 1013.68 1013.63 1013.59 1013.52 1013.44 1013.32 1013.15 1012.94 1012.68 1012.37 1012.01 1011.63 1011.23 1010.83 1010.45 1010.11
1009.73 1009.50 1009.46 1009.58 1009.85 1010.23 1010.70 1011.21 1011.73 1012.23 1012.68 1013.07 1013.39 1013.64 1013.82 1013.94 1014.00 1014.01 1013.99 1013.93 1013.86 1013.77 1013.67 1013.57 1013.48 1013.40 1013.32 1013.26 1013.22 1013.17 1013.12 1013.06 1012.97 1012.85 1012.68 1012.47 1012.21 1011.90 1011.55 1011.17 1010.79 1010.40 1010.04 1009.72
1010.22 1009.87 1009.69 1009.67 1009.81 1010.06 1010.41 1010.82 1011.26 1011.70 1012.12 1012.50 1012.83 1013.10 1013.31 1013.46 1013.56 1013.60 1013.60 1013.57 1013.50 1013.42 1013.33 1013.24 1013.14 1013.05 1012.98 1012.91 1012.85 1012.79 1012.72 1012.65 1012.55 1012.41 1012.24 1012.02 1011.76 1011.46 1011.12 1010.76 1010.40 1010.04 1009.70 1009.41
1011.02 1010.56 1010.25 1010.08 1010.05 1010.14 1010.33 1010.60 1010.92 1011.26 1011.62 1011.95 1012.26 1012.53 1012.75 1012.93 1013.06 1013.14 1013.19 1013.19 1013.17 1013.11 1013.05 1012.97 1012.88 1012.80 1012.71 1012.63 1012.55 1012.47 1012.38 1012.28 1012.15 1012.00 1011.82 1011.59 1011.34 1011.05 1010.73 1010.40 1010.07 1009.74 1009.44 1009.18
1012.02 1011.47 1011.04 1010.72 1010.53 1010.45 1010.47 1010.57 1010.74 1010.96 1011.21 1011.47 1011.73 1011.97 1012.19 1012.38 1012.54 1012.66 1012.75 1012.80 1012.82 1012.82 1012.79 1012.73 1012.67 1012.59 1012.50 1012.40 1012.30 1012.19 1012.06 1011.93 1011.78 1011.61 1011.41 1011.19 1010.94 1010.68 1010.40 1010.10 1009.81 1009.53 1009.26 1009.03
1013.07 1012.46 1011.94 1011.50 1011.15 1010.91 1010.76 1010.70 1010.71 1010.79 1010.91 1011.07 1011.25 1011.45 1011.64 1011.83 1012.01 1012.16 1012.29 1012.39 1012.46 1012.50 1012.51 1012.49 1012.44 1012.37 1012.27 1012.16 1012.04 1011.89 1011.74 1011.58 1011.40 1011.21 1011.02 1010.81 1010.59 1010.36 1010.12 1009.88 1009.64 1009.40 1009.18 1008.97
1014.00 1013.37 1012.78 1012.26 1011.80 1011.42 1011.13 1010.91 1010.78 1010.71 1010.70 1010.75 1010.85 1010.98 1011.13 1011.30 1011.47 1011.64 1011.79 1011.93 1012.04 1012.12 1012.17 1012.18 1012.15 1012.09 1011.99 1011.87 1011.72 1011.56 1011.38 1011.20 1011.01 1010.82 1010.64 1010.46 1010.28 1010.10 1009.92 1009.75 1009.56 1009.38 1009.19 1009.01
1014.69 1014.05 1013.44 1012.86 1012.33 1011.86 1011.45 1011.12 1010.86 1010.66 1010.54 1010.48 1010.49 1010.54 1010.64 1010.77 1010.92 1011.09 1011.25 1011.41 1011.55 1011.66 1011.73 1011.76 1011.75 1011.70 1011.60 1011.48 1011.32 1011.15 1010.97 1010.78 1010.60 1010.44 1010.29 1010.15 1010.03 1009.92 1009.81 1009.70 1009.58 1009.45 1009.30 1009.14
1015.01 1014.40 1013.80 1013.20 1012.64 1012.12 1011.64 1011.22 1010.87 1010.58 1010.37 1010.22 1010.13 1010.11 1010.15 1010.23 1010.35 1010.49 1010.65 1010.81 1010.96 1011.08 1011.17 1011.21 1011.22 1011.18 1011.09 1010.97 1010.83 1010.66 1010.49 1010.33 1010.19 1010.06 1009.97 1009.90 1009.85 1009.81 1009.78 1009.74 1009.69 1009.61 1009.49 1009.35
1014.94 1014.38 1013.80 1013.22 1012.66 1012.12 1011.62 1011.17 1010.76 1010.41 1010.13 1009.91 1009.76 1009.67 1009.65 1009.67 1009.75 1009.86 1009.99 1010.13 1010.27 1010.39 1010.48 1010.54 1010.56 1010.53 1010.46 1010.37 1010.24 1010.11 1009.98 1009.86 1009.77 1009.71 1009.68 1009.68 1009.71 1009.76 1009.80 1009.83 1009.83 1009.80 1009.71 1009.57
1014.52 1014.00 1013.47 1012.93 1012.40 1011.88 1011.39 1010.93 1010.51 1010.13 1009.81 1009.55 1009.35 1009.20 1009.12 1009.10 1009.12 1009.19 1009.28 1009.39 1009.51 1009.62 1009.71 1009.77 1009.80 1009.79 1009.75 1009.69 1009.61 1009.52 1009.45 1009.39 1009.37 1009.38 1009.43 1009.51 1009.61 1009.73 1009.84 1009.93 1009.97 1009.97 1009.90 1009.76
Thickness
5695 5702 5705 5702 5701 5701 5692 5683 5673 5674 5676 5680 5683 5683 5684 5684 5684 5683 5682 5681 5680 5678 5676 5675 5675 5675 5675 5675 5674 5674 5672 5670 5669 5668 5668 5666 5665 5664 5663 5662 5660 5659 5657 5655
5692 5703 5703 5698 5700 5700 5695 5692 5685 5681 5680 5688 5688 5686 5684 5684 5683 5681 5681 5681 5679 5678 5676 5675 5674 5673 5673 5672 5672 5672 5670 5668 5668 5667 5666 5664 5663 5662 5660 5659 5658 5656 5654 5653
5677 5693 5696 5683 5693 5695 5693 5693 5688 5678 5682 5688 5685 5684 5683 5683 5683 5681 5680 5680 5679 5677 5675 5674 5673 5673 5671 5671 5671 5669 5668 5667 5666 5665 5663 5662 5661 5659 5658 5656 5655 5653 5651 5649
5672 5678 5667 5682 5703 5702 5694 5692 5694 5690 5689 5689 5687 5686 5686 5686 5684 5682 5681 5680 5678 5677 5675 5674 5674 5673 5672 5671 5669 5668 5667 5666 5665 5663 5661 5660 5659 5657 5655 5654 5653 5651 5649 5647
5665 5663 5671 5688 5699 5698 5690 5685 5694 5691 5690 5689 5688 5684 5683 5687 5687 5684 5682 5681 5678 5677 5676 5674 5673 5672 5671 5669 5667 5666 5665 5664 5663 5662 5659 5658 5657 5655 5654 5652 5650 5649 5647 5644
5667 5662 5660 5679 5701 5708 5695 5678 5694 5693 5690 5687 5684 5671 5675 5685 5686 5684 5682 5680 5678 5677 5675 5673 5672 5671 5669 5666 5665 5664 5664 5663 5662 5661 5659 5657 5656 5654 5653 5651 5649 5647 5644 5642
5662 5658 5668 5691 5703 5702 5675 5675 5694 5695 5691 5688 5683 5680 5683 5686 5684 5683 5681 5680 5679 5676 5673 5672 5671 5669 5666 5665 5663 5664 5664 5663 5661 5660 5658 5656 5654 5653 5651 5649 5646 5644 5641 5639
5659 5654 5662 5694 5696 5686 5683 5693 5696 5695 5692 5689 5686 5686 5685 5685 5683 5681 5679 5679 5677 5674 5672 5671 5671 5668 5665 5663 5663 5664 5663 5661 5659 5658 5657 5655 5652 5650 5648 5645 5642 5639 5636 5634
5667 5667 5682 5692 5693 5695 5693 5692 5694 5693 5692 5690 5686 5684 5683 5682 5681 5680 5679 5677 5676 5673 5671 5670 5669 5668 5664 5663 5663 5662 5660 5658 5657 5656 5654 5652 5650 5647 5644 5641 5638 5635 5632 5629
5670 5676 5684 5689 5693 5694 5694 5693 5695 5693 5693 5690 5686 5684 5682 5681 5679 5678 5677 5676 5674 5671 5668 5667 5667 5667 5665 5664 5663 5661 5658 5656 5654 5652 5650 5649 5647 5645 5641 5638 5635 5632 5629 5626
5666 5674 5678 5683 5687 5690 5692 5694 5693 5692 5691 5690 5686 5682 5681 5679 5678 5677 5676 5674 5672 5669 5667 5666 5666 5665 5665 5664 5662 5658 5656 5654 5652 5650 5647 5645 5643 5641 5639 5637 5635 5631 5628 5625
5661 5672 5670 5675 5685 5689 5688 5688 5689 5688 5687 5687 5686 5681 5679 5677 5677 5676 5674 5673 5670 5668 5666 5665 5664 5663 5664 5663 5661 5657 5654 5651 5649 5647 5645 5643 5640 5638 5638 5636 5635 5632 5629 5625
5674 5679 5677 5681 5685 5687 5685 5686 5687 5686 5684 5682 5682 5681 5678 5675 5675 5674 5673 5671 5669 5668 5666 5665 5663 5662 5663 5662 5660 5657 5653 5650 5648 5646 5644 5641 5637 5634 5632 5632 5631 5629 5627 5623
5678 5677 5674 5678 5679 5683 5683 5684 5684 5683 5682 5682 5680 5678 5675 5673 5672 5671 5670 5670 5669 5668 5666 5665 5663 5662 5663 5661 5659 5656 5653 5650 5647 5644 5642 5639 5636 5634 5631 5628 5625 5624 5623 5621
5674 5674 5673 5676 5677 5678 5679 5679 5677 5675 5676 5676 5677 5674 5672 5670 5669 5669 5669 5669 5667 5665 5664 5663 5662 5661 5662 5660 5657 5654 5652 5649 5646 5644 5641 5639 5636 5633 5630 5627 5624 5621 5619 5617
5668 5670 5671 5670 5671 5672 5672 5672 5670 5670 5671 5672 5671 5671 5671 5670 5668 5668 5667 5666 5663 5661 5661 5660 5660 5660 5660 5658 5656 5653 5650 5649 5646 5643 5640 5637 5634 5631 5628 5625 5622 5619 5616 5614
5657 5658 5661 5662 5664 5666 5667 5667 5668 5668 5668 5667 5668 5668 5667 5665 5663 5663 5663 5663 5662 5660 5660 5659 5658 5659 5659 5657 5654 5651 5649 5647 5646 5642 5638 5636 5633 5630 5627 5624 5621 5618 5616 5614
5656 5657 5659 5659 5659 5660 5662 5664 5665 5665 5665 5666 5667 5664 5662 5661 5659 5659 5660 5659 5658 5657 5657 5657 5657 5657 5656 5655 5652 5650 5647 5645 5643 5640 5637 5635 5633 5630 5627 5624 5621 5618 5615 5612
5653 5654 5655 5657 5657 5657 5658 5659 5661 5662 5664 5663 5662 5660 5660 5659 5658 5656 5656 5654 5652 5651 5653 5655 5655 5654 5653 5652 5651 5648 5645 5643 5641 5638 5636 5635 5632 5629 5626 5623 5620 5617 5614 5610
5646 5648 5650 5651 5653 5653 5653 5655 5657 5658 5659 5659 5658 5656 5655 5655 5655 5653 5652 5650 5650 5651 5652 5652 5652 5651 5651 5650 5648 5645 5643 5641 5638 5636 5634 5632 5629 5627 5624 5622 5619 5615 5612 5609
5637 5640 5642 5643 5645 5648 5649 5650 5651 5652 5653 5654 5652 5652 5651 5651 5652 5650 5647 5645 5648 5650 5650 5650 5649 5648 5648 5646 5645 5642 5640 5638 5636 5633 5632 5630 5627 5625 5623 5620 5617 5614 5610 5607
5628 5631 5634 5636 5638 5640 5642 5644 5645 5647 5648 5648 5648 5648 5647 5646 5646 5645 5645 5645 5647 5647 5646 5646 5646 5646 5645 5643 5641 5639 5637 5636 5633 5631 5629 5627 5625 5623 5621 5618 5614 5612 5608 5605
5619 5623 5626 5628 5630 5632 5635 5637 5639 5641 5642 5643 5643 5643 5643 5643 5643 5641 5640 5643 5644 5644 5643 5643 5643 5642 5641 5639 5637 5636 5634 5632 5631 5629 5627 5625 5623 5621 5618 5615 5612 5609 5606 5603
5611 5615 5618 5621 5623 5624 5626 5629 5632 5635 5638 5640 5640 5640 5639 5638 5638 5641 5642 5642 5642 5641 5640 5640 5639 5638 5637 5635 5634 5632 5631 5629 5628 5626 5625 5623 5621 5619 5616 5612 5609 5606 5603 5601
5604 5607 5609 5611 5613 5616 5620 5623 5626 5629 5631 5632 5633 5635 5636 5637 5636 5638 5638 5639 5638 5637 5636 5637 5636 5634 5633 5631 5630 5629 5628 5626 5625 5624 5622 5620 5618 5616 5613 5610 5607 5604 5601 5598
5596 5598 5601 5604 5606 5609 5613 5616 5618 5621 5622 5623 5625 5628 5630 5631 5633 5633 5634 5634 5634 5633 5632 5632 5632 5630 5629 5628 5627 5626 5625 5624 5623 5621 5620 5618 5616 5613 5610 5607 5604 5601 5599 5596
5590 5592 5594 5596 5600 5603 5605 5608 5610 5612 5615 5617 5618 5621 5624 5625 5626 5627 5628 5628 5628 5627 5627 5627 5627 5626 5626 5625 5624 5623 5623 5622 5621 5619 5617 5615 5613 5610 5607 5605 5602 5599 5596 5593